[TLELIST] Archives

 

[list_settings.list_name] Current TLEs

May 7th 2021 PST

HST 1 20580U 90037B 21127.31327929 .00000447 00000-0 16102-4 0 9992 2 20580 28.4720 337.2894 0002569 335.9595 24.0929 15.09632017505030 ISS (ZARYA) 1 25544U 98067A 21127.19945859 .00000523 00000-0 17665-4 0 9992 2 25544 51.6441 185.4559 0002803 329.9462 127.3881 15.48981972282240 CXO 1 25867U 99040B 21128.43953678 .00000663 00000-0 00000-0 0 9994 2 25867 56.0518 256.8303 8260144 226.2953 359.8905 0.37804167 10293 ____________________________________________________________________ These 2-Line ...Continue Reading

[list_settings.list_name] Current TLEs

May 6th 2021 PST

HST 1 20580U 90037B 21125.95088196 .00000552 00000-0 22476-4 0 9998 2 20580 28.4710 346.3042 0002556 327.8598 173.3270 15.09631409504630 ISS (ZARYA) 1 25544U 98067A 21125.65115462 .00001264 00000-0 31118-4 0 9992 2 25544 51.6432 193.1161 0002704 323.3863 134.4030 15.48981648282007 CXO 1 25867U 99040B 21125.79658780 .00000717 00000-0 00000-0 0 9996 2 25867 56.0785 256.8932 8254340 226.3156 0.0752 0.37806570 10277 ____________________________________________________________________ These 2-Line ...Continue Reading

[list_settings.list_name] Current TLEs

May 4th 2021 PST

HST 1 20580U 90037B 21124.03377800 .00000605 00000-0 25642-4 0 9996 2 20580 28.4710 358.9882 0002512 305.9630 195.7412 15.09630141504545 ISS (ZARYA) 1 25544U 98067A 21124.49111538 .00001256 00000-0 30973-4 0 9992 2 25544 51.6438 198.8552 0002566 314.6566 150.1060 15.48977616281825 CXO 1 25867U 99040B 21125.79658780 .00000717 00000-0 00000-0 0 9996 2 25867 56.0785 256.8932 8254340 226.3156 0.0752 0.37806570 10277 ____________________________________________________________________ These 2-Line ...Continue Reading

[list_settings.list_name] Current TLEs

May 3rd 2021 PST

HST 1 20580U 90037B 21122.97088001 .00000623 00000-0 26756-4 0 9996 2 20580 28.4710 6.0206 0002495 293.6170 180.1393 15.09629293504180 ISS (ZARYA) 1 25544U 98067A 21123.39261072 .00075812 00000-0 13722-2 0 9999 2 25544 51.6397 204.2903 0002686 310.8185 144.2874 15.48973990281658 CXO 1 25867U 99040B 21123.15291625 .00000751 00000-0 00000-0 0 9993 2 25867 56.1215 256.9728 8250130 226.3301 0.1326 0.37808334 10273 ____________________________________________________________________ These 2-Line ...Continue Reading

[list_settings.list_name] Current TLEs

May 2nd 2021 PST

HST 1 20580U 90037B 21121.83832126 .00000653 00000-0 28542-4 0 9993 2 20580 28.4709 13.5138 0002489 280.3204 146.1581 15.09628372504200 ISS (ZARYA) 1 25544U 98067A 21122.36352193 .00001441 00000-0 34330-4 0 9997 2 25544 51.6432 209.3781 0002690 308.7942 164.0234 15.48970511281498 CXO 1 25867U 99040B 21123.15291625 .00000751 00000-0 00000-0 0 9993 2 25867 56.1215 256.9728 8250130 226.3301 0.1326 0.37808334 10273 ____________________________________________________________________ These 2-Line ...Continue Reading

[list_settings.list_name] Current TLEs

May 1st 2021 PST

HST 1 20580U 90037B 21120.91650338 .00000645 00000-0 28106-4 0 9991 2 20580 28.4709 19.6127 0002485 269.5232 177.2570 15.09627453503875 ISS (ZARYA) 1 25544U 98067A 21121.33026878 .00001471 00000-0 34890-4 0 9995 2 25544 51.6436 214.4885 0002711 304.5115 162.7888 15.48966855281333 CXO 1 25867U 99040B 21123.15291625 .00000751 00000-0 00000-0 0 9993 2 25867 56.1215 256.9728 8250130 226.3301 0.1326 0.37808334 10273 ____________________________________________________________________ These 2-Line ...Continue Reading

[list_settings.list_name] Current TLEs

April 30th 2021 PST

HST 1 20580U 90037B 21119.92368847 .00000676 00000-0 29984-4 0 9990 2 20580 28.4708 26.1814 0002490 257.9076 182.5676 15.09626604503720 ISS (ZARYA) 1 25544U 98067A 21120.18494590 .00001477 00000-0 35009-4 0 9996 2 25544 51.6443 220.1551 0002751 301.4932 254.9576 15.48962408281150 CXO 1 25867U 99040B 21120.50892527 .00000752 00000-0 00000+0 0 9997 2 25867 56.1943 257.0716 8244667 226.3450 0.1463 0.37803073 21395 ____________________________________________________________________ These 2-Line ...Continue Reading

[list_settings.list_name] Current TLEs

April 29th 2021 PST

HST 1 20580U 90037B 21119.07170241 .00000702 00000-0 31518-4 0 9991 2 20580 28.4707 31.8184 0002499 248.0432 233.0037 15.09625860503780 ISS (ZARYA) 1 25544U 98067A 21119.45705644 .00002572 00000-0 54883-4 0 9997 2 25544 51.6437 223.7520 0002541 292.9271 161.9542 15.48963124281049 CXO 1 25867U 99040B 21120.50892527 .00000752 00000-0 00000+0 0 9997 2 25867 56.1943 257.0716 8244667 226.3450 0.1463 0.37803073 21395 ____________________________________________________________________ These 2-Line ...Continue Reading

[list_settings.list_name] Current TLEs

April 28th 2021 PST

HST 1 20580U 90037B 21117.49274075 .00000721 00000-0 32669-4 0 9994 2 20580 28.4705 42.2653 0002534 230.1797 292.7516 15.09624229503558 ISS (ZARYA) 1 25544U 98067A 21118.36189125 .00003419 00000-0 70280-4 0 9996 2 25544 51.6437 229.1697 0002615 287.3710 176.5693 15.48960039280873 CXO 1 25867U 99040B 21120.50892527 .00000752 00000-0 00000+0 0 9997 2 25867 56.1943 257.0716 8244667 226.3450 0.1463 0.37803073 21395 ____________________________________________________________________ These 2-Line ...Continue Reading

[list_settings.list_name] Current TLEs

April 27th 2021 PST

HST 1 20580U 90037B 21116.94642031 .00000726 00000-0 32977-4 0 9991 2 20580 28.4704 45.8798 0002562 223.9266 204.0600 15.09623619503279 ISS (ZARYA) 1 25544U 98067A 21117.32846381 .00003186 00000-0 66065-4 0 9992 2 25544 51.6435 234.2812 0002581 282.4115 175.0836 15.48951248280712 CXO 1 25867U 99040B 21117.86529115 .00000819 00000-0 00000-0 0 9997 2 25867 56.2551 257.1583 8240653 226.3791 0.1850 0.37805788 10240 ____________________________________________________________________ These 2-Line ...Continue Reading
  • This mailing list is a public mailing list - anyone may join or leave, at any time.
  • This mailing list is announce-only.

International Space Station (ISS) / Hubble Space Telescope (HST) / Chandra X-Ray Observatory Orbital Data via EMAIL

Privacy Policy:

Private list